Regional Weather Roundup
Issued by NWS Northern Indiana

Home | Current Version | Previous Version | Graphics & Text | Print | Product List | Glossary On
Versions: 1 2 3 4 5 6 7 8 9 10 11 12 13 14 15 16 17 18 19 20 21 22 23 24 25 26 27 28 29 30 31 32 33 34 35 36 37 38 39 40 41 42 43 44 45 46 47 48 49 50
000
ASUS43 KIWX 280210
RWRIWX

KIWX WEATHER ROUNDUP
NATIONAL WEATHER SERVICE NORTHERN INDIANA
1000 PM EDT SUN JUL 27 2014

NOTE: "FAIR" INDICATES FEW OR NO CLOUDS BELOW 12,000 FEET WITH NO
SIGNIFICANT WEATHER AND/OR OBSTRUCTIONS TO VISIBILITY.

* THESE STATIONS ARE NOT UNDER NWS QUALITY CONTROL. THEY ALSO MAY NOT
  REPORT WEATHER SUCH AS PRECIPITATION OR FOG.

INZ001>027-280300-
NORTHERN INDIANA

CITY           SKY/WX    TMP DP  RH WIND       PRES   REMARKS
GARY*          MOCLDY    73  55  53 NW12G23   29.82R
VALPARAISO     MOCLDY    67  58  72 N10G17    29.83R
MICHIGAN CITY* PTCLDY    64  55  72 N10G17    29.83R
LAPORTE*       MOCLDY    65  57  74 N10       29.83R
KNOX*          CLEAR     68  58  69 N10       29.81R
SOUTH BEND     MOCLDY    67  55  65 NW15G23   29.81R
GOSHEN         PTCLDY    68  58  70 NW13      29.77S
MONTICELLO*    CLEAR     69  58  67 W10       29.81R
LOGANSPORT*    CLOUDY    70  55  60 NW5       29.82R
ROCHESTER*     PTCLDY    70  57  64 NW7       29.81R
WARSAW*        PTCLDY    66  55  68 NW8       29.79R
ANGOLA*        CLEAR     66  57  72 NW5       29.75R
FORT WAYNE     MOCLDY    69  59  70 W8        29.78R
HUNTINGTON*    CLOUDY    69  57  65 NW10      29.79R
PERU/GRISSOM   DRIZZLE   72  60  66 NW13      29.81R
MARION*        CLOUDY    70  56  60 NW8       29.81R

$$
INZ028>050-280300-
CENTRAL INDIANA

CITY           SKY/WX    TMP DP  RH WIND       PRES   REMARKS
LAFAYETTE      CLEAR     70  57  63 W12       29.83R
KOKOMO*        MOCLDY    70  57  64 NW9       29.81R
MUNCIE*        MOCLDY    72  57  59 NW15G25   29.79R
INDIANAPOLIS   PTCLDY    72  58  61 NW17G28   29.82R

$$
MIZ043>046-050>051-056>058-064>065-071>073-077>080-280300-
SOUTHWEST LOWER MICHIGAN

CITY           SKY/WX    TMP DP  RH WIND       PRES   REMARKS
BATTLE CREEK   PTCLDY    65  60  84 W5        29.76R
BENTON HARBOR  PTCLDY    63  59  87 VRB7      29.80R
COLDWATER*     MOCLDY    68  60  76 NW3       29.76R
HILLSDALE*     PTCLDY    62  62  99 CALM      29.75R
HOLLAND        CLOUDY    64  60  87 NW14G22   29.78R
GRAND RAPIDS   MOCLDY    65  61  87 CALM      29.75R
KALAMAZOO      PTCLDY    66  59  78 W9        29.76R
STURGIS*       MOCLDY    66  57  72 W6        29.76R
THREE RIVERS*  FAIR      67  61  81 W10       29.76R

$$
OHZ001>008-015>018-024>025-280300-
NORTHWEST OHIO

CITY           SKY/WX    TMP DP  RH WIND       PRES   REMARKS
WAUSEON*       FAIR      64  61  88 N3        29.74R
DEFIANCE       PTCLDY    67  61  81 VRB5      29.74R
FINDLAY        CLOUDY    70  62  76 W7        29.71R
TOLEDO EXPRESS MOCLDY    65  56  72 NE8       29.72R
TOLEDO METCALF CLOUDY    67  57  70 NE5       29.72R
LIMA           LGT RAIN  68  65  90 NW9       29.74R

$$
&&


USA.gov is the U.S. government's official web portal to all federal, state and local government web resources and services.